Regional Weather Roundup
Issued by NWS Kansas City/Pleasant Hill, MO

Home | Current Version | Previous Version | Graphics & Text | Print | Product List | Glossary Off
Versions: 1 2 3 4 5 6 7 8 9 10 11 12 13 14 15 16 17 18 19 20 21 22 23 24 25 26 27

000
ASUS43 KEAX 251110
RWREAX

WEATHER ROUNDUP FOR EASTERN KANSAS AND NORTHWEST MISSOURI
NATIONAL WEATHER SERVICE KANSAS CITY/PLEASANT HILL MO
600 AM CDT THU MAY 25 2017

KSZ040-057-103>105-MOZ028-029-037-043-251200-
...KANSAS CITY METROPOLITAN AREA...

CITY           SKY/WX    TMP DP  RH WIND       PRES   REMARKS
K.C. INTL      PTCLDY    48  46  93 SE9       29.69S
K.C. DOWNTOWN  CLEAR     50  48  93 CALM      29.70R FOG
LEES SUMMIT    CLEAR     51  48  89 SW5       29.72R
OLATHE - IXD   CLEAR     45  43  93 SE5       29.71R
OLATHE - OJC   CLEAR     45  45 100 S3        29.70S
LAWRENCE       CLEAR     46  46 100 E5        29.70R

$$

MOZ001>008-011>017-020>025-030>033-038>040-044>046-053-054-251200-
...NORTHERN AND CENTRAL MISSOURI...

CITY           SKY/WX    TMP DP  RH WIND       PRES   REMARKS
ST. JOSEPH     MOCLDY    44  44 100 CALM      29.69F FOG
WARRENSBURG    CLEAR     45  43  93 CALM      29.72R
WHITEMAN AFB   CLEAR     46  46 100 S5        29.71R
CLINTON        FOG       45  45 100 CALM      29.72R VSB 1
SEDALIA        CLEAR     50  50 100 SW5       29.73R
WARSAW         NOT AVBL
CHILLICOTHE      N/A     44  42  93 CALM      29.72R
KIRKSVILLE     FOG       41  41 100 CALM      29.71R VSB<1/4

$$

MOZ041-047>049-056>058-063>065-088>090-097-251200-
...EASTERN AND SOUTHERN MISSOURI...

CITY           SKY/WX    TMP DP  RH WIND       PRES   REMARKS
ST. LOUIS INTL PTCLDY    55  50  83 W8        29.67R
SPIRIT OF STL  CLEAR     50  50 100 W3        29.68R
COLUMBIA       CLEAR     49  49 100 W7        29.71R
JEFFERSON CITY FOG       50  47  89 NW3       29.72R VSB 1/4
ROLLA          CLEAR     44  44 100 CALM      29.70R
OSAGE BEACH    CLEAR     43  43 100 CALM      29.73S
SPRINGFIELD    CLEAR     46  44  93 SE5       29.72S
BRANSON        CLEAR     48  48 100 CALM      29.75S
JOPLIN         CLEAR     49  47  93 CALM      29.72F
WEST PLAINS    PTCLDY    46  45  96 W5        29.73S

$$

IAZ060-094-KSZ022-034>040-054-083-096-NEZ052-066-093-251200-
...KANSAS...SOUTHEAST NEBRASKA AND IOWA...

CITY           SKY/WX    TMP DP  RH WIND       PRES   REMARKS
TOPEKA         PTCLDY    48  48 100 CALM      29.69R
MANHATTAN      CLEAR     46  44  93 CALM      29.66S
EMPORIA        PTCLDY    46  45  96 S7        29.69R
CHANUTE        PTCLDY    46  44  93 SE3       29.71R
WICHITA        CLEAR     50  46  86 S8        29.65S
OMAHA          PTCLDY    50  45  83 SE7       29.65S
LINCOLN        CLOUDY    48  45  89 SE8       29.64F
FALLS CITY     PTCLDY    48  45  89 SE3       29.68R
LAMONI         CLEAR     47  45  93 CALM      29.70R FOG
DES MOINES     PTCLDY    46  44  93 CALM      29.70R

$$





USA.gov is the U.S. government's official web portal to all federal, state and local government web resources and services.